When you browse on this site, cookies collect data to enhance your experience and personalize the content and advertising you see.
Visit our Privacy Policy to learn more. By continuing to use the site, you agree to this use of cookies and data.
  • In Spain
  • List of Countries
  • For 7 days
  • Water Temperature
  • Weather Map
  • Weather Widgets
  • user-avatar
    Login

    Hourly Weather Shrewsbury

    Today, 23 September, Monday

    Time Temperature Precipitation Wind Pressure Humidity
    00:00 +12°C° 0 mm 3 mps 748 mmHg 96%
    01:00 +12°C° 0 mm 3 mps 748 mmHg 96%
    02:00 +11°C° 0 mm 3 mps 748 mmHg 96%
    03:00 +11°C° 0 mm 3 mps 748 mmHg 95%
    04:00 +11°C° 0 mm 3 mps 749 mmHg 95%
    05:00 +10°C° 0 mm 3 mps 749 mmHg 95%
    06:00 +10°C° 0 mm 2 mps 750 mmHg 95%
    07:00 +11°C° 0 mm 3 mps 750 mmHg 91%
    08:00 +13°C° 0 mm 3 mps 750 mmHg 87%
    09:00 +14°C° 0 mm 4 mps 750 mmHg 82%
    10:00 +15°C° 0 mm 5 mps 750 mmHg 78%
    11:00 +16°C° 0 mm 5 mps 750 mmHg 73%
    12:00 +17°C° 0 mm 6 mps 750 mmHg 69%
    13:00 +17°C° 0.2 mm 6 mps 750 mmHg 72%
    14:00 +17°C° 0.2 mm 6 mps 749 mmHg 75%
    15:00 +17°C° 0.2 mm 7 mps 749 mmHg 78%
    16:00 +16°C° 0.7 mm 7 mps 748 mmHg 83%
    17:00 +15°C° 0.7 mm 7 mps 748 mmHg 88%
    18:00 +14°C° 0.7 mm 7 mps 748 mmHg 93%
    19:00 +14°C° 0 mm 6 mps 748 mmHg 93%
    20:00 +15°C° 0 mm 6 mps 748 mmHg 94%
    21:00 +15°C° 0 mm 5 mps 748 mmHg 94%
    22:00 +15°C° 0 mm 4 mps 747 mmHg 95%
    23:00 +15°C° 0 mm 4 mps 747 mmHg 95%

    Tomorrow, 24 September, Tuesday

    Time Temperature Precipitation Wind Pressure Humidity
    00:00 +15°C° 0 mm 4 mps 747 mmHg 95%
    01:00 +15°C° 0.1 mm 4 mps 746 mmHg 96%
    02:00 +16°C° 0.1 mm 3 mps 746 mmHg 96%
    03:00 +16°C° 0.1 mm 3 mps 745 mmHg 96%
    04:00 +16°C° 0.5 mm 3 mps 744 mmHg 96%
    05:00 +16°C° 0.5 mm 3 mps 744 mmHg 96%
    06:00 +16°C° 0.5 mm 3 mps 743 mmHg 96%
    07:00 +16°C° 2 mm 3 mps 743 mmHg 96%
    08:00 +17°C° 2 mm 3 mps 742 mmHg 95%
    09:00 +17°C° 2 mm 3 mps 742 mmHg 95%
    10:00 +15°C° 2.9 mm 4 mps 742 mmHg 94%
    11:00 +15°C° 2.9 mm 4 mps 742 mmHg 93%
    12:00 +15°C° 2.9 mm 5 mps 742 mmHg 92%
    13:00 +15°C° 0.4 mm 5 mps 742 mmHg 88%
    14:00 +16°C° 0.4 mm 5 mps 742 mmHg 84%
    15:00 +16°C° 0.4 mm 5 mps 743 mmHg 80%
    16:00 +15°C° 0.1 mm 4 mps 743 mmHg 83%
    17:00 +14°C° 0.1 mm 4 mps 743 mmHg 86%
    18:00 +14°C° 0.1 mm 4 mps 743 mmHg 88%
    19:00 +13°C° 0.1 mm 4 mps 743 mmHg 90%
    20:00 +13°C° 0.1 mm 4 mps 743 mmHg 91%
    21:00 +13°C° 0.1 mm 4 mps 743 mmHg 93%
    22:00 +13°C° 0.7 mm 4 mps 742 mmHg 93%
    23:00 +13°C° 0.7 mm 4 mps 742 mmHg 94%

    Day after tomorrow, 25 September, Wednesday

    Time Temperature Precipitation Wind Pressure Humidity
    00:00 +13°C° 0.7 mm 5 mps 741 mmHg 95%
    01:00 +13°C° 0.1 mm 4 mps 741 mmHg 95%
    02:00 +13°C° 0.1 mm 3 mps 741 mmHg 95%
    03:00 +12°C° 0.1 mm 3 mps 741 mmHg 96%
    04:00 +13°C° 0.1 mm 2 mps 741 mmHg 96%
    05:00 +13°C° 0.1 mm 2 mps 741 mmHg 96%
    06:00 +13°C° 0.1 mm 1 mps 741 mmHg 96%
    07:00 +14°C° 0 mm 2 mps 741 mmHg 94%
    08:00 +15°C° 0 mm 2 mps 742 mmHg 91%
    09:00 +16°C° 0 mm 3 mps 742 mmHg 88%
    10:00 +17°C° 0.2 mm 3 mps 743 mmHg 85%
    11:00 +18°C° 0.2 mm 3 mps 743 mmHg 82%
    12:00 +18°C° 0.2 mm 3 mps 744 mmHg 80%
    13:00 +18°C° 0.3 mm 4 mps 744 mmHg 79%
    14:00 +18°C° 0.3 mm 4 mps 744 mmHg 79%
    15:00 +18°C° 0.3 mm 4 mps 744 mmHg 78%
    16:00 +17°C° 0 mm 4 mps 744 mmHg 82%
    17:00 +16°C° 0 mm 3 mps 744 mmHg 86%
    18:00 +15°C° 0 mm 2 mps 744 mmHg 90%
    19:00 +14°C° 0.1 mm 3 mps 744 mmHg 91%
    20:00 +14°C° 0.1 mm 3 mps 744 mmHg 93%
    21:00 +14°C° 0.1 mm 4 mps 744 mmHg 94%
    22:00 +15°C° 0.5 mm 4 mps 743 mmHg 94%
    23:00 +15°C° 0.5 mm 5 mps 743 mmHg 94%

    26 September, Thursday

    Time Temperature Precipitation Wind Pressure Humidity
    00:00 +16°C° 0.5 mm 6 mps 742 mmHg 94%
    01:00 +15°C° 0.1 mm 6 mps 742 mmHg 93%
    02:00 +15°C° 0.1 mm 5 mps 742 mmHg 93%
    03:00 +15°C° 0.1 mm 5 mps 742 mmHg 93%
    04:00 +14°C° 0.1 mm 5 mps 742 mmHg 92%
    05:00 +14°C° 0.1 mm 5 mps 742 mmHg 92%
    06:00 +13°C° 0.1 mm 5 mps 743 mmHg 92%
    07:00 +14°C° 0 mm 5 mps 743 mmHg 88%
    08:00 +14°C° 0 mm 5 mps 743 mmHg 85%
    09:00 +14°C° 0 mm 6 mps 744 mmHg 81%
    10:00 +14°C° 0.1 mm 6 mps 744 mmHg 80%
    11:00 +15°C° 0.1 mm 6 mps 744 mmHg 79%
    12:00 +15°C° 0.1 mm 6 mps 744 mmHg 78%
    13:00 +15°C° 0.1 mm 7 mps 744 mmHg 78%
    14:00 +15°C° 0.1 mm 7 mps 744 mmHg 77%
    15:00 +16°C° 0.1 mm 7 mps 744 mmHg 77%
    16:00 +15°C° 0.1 mm 7 mps 744 mmHg 80%
    17:00 +14°C° 0.1 mm 6 mps 744 mmHg 82%
    18:00 +13°C° 0.1 mm 6 mps 744 mmHg 85%
    19:00 +13°C° 0 mm 5 mps 745 mmHg 86%
    20:00 +12°C° 0 mm 5 mps 745 mmHg 87%
    21:00 +12°C° 0 mm 4 mps 746 mmHg 89%
    22:00 +12°C° 0 mm 4 mps 745 mmHg 89%
    23:00 +12°C° 0 mm 4 mps 745 mmHg 88%

    27 September, Friday

    Time Temperature Precipitation Wind Pressure Humidity
    00:00 +12°C° 0 mm 4 mps 745 mmHg 88%
    01:00 +12°C° 0 mm 4 mps 745 mmHg 89%
    02:00 +11°C° 0 mm 4 mps 745 mmHg 89%
    03:00 +11°C° 0 mm 4 mps 745 mmHg 89%
    04:00 +11°C° 0 mm 4 mps 745 mmHg 89%
    05:00 +11°C° 0 mm 4 mps 744 mmHg 89%
    06:00 +11°C° 0 mm 4 mps 744 mmHg 89%
    07:00 +12°C° 0 mm 5 mps 744 mmHg 86%
    08:00 +13°C° 0 mm 6 mps 744 mmHg 83%
    09:00 +14°C° 0 mm 7 mps 744 mmHg 79%
    10:00 +13°C° 0.2 mm 8 mps 744 mmHg 79%
    11:00 +13°C° 0.2 mm 8 mps 744 mmHg 78%
    12:00 +13°C° 0.2 mm 9 mps 744 mmHg 78%
    13:00 +13°C° 0.3 mm 8 mps 743 mmHg 80%
    14:00 +13°C° 0.3 mm 8 mps 743 mmHg 82%
    15:00 +14°C° 0.3 mm 7 mps 743 mmHg 84%
    16:00 +12°C° 1.1 mm 7 mps 743 mmHg 87%
    17:00 +13°C° 1.1 mm 6 mps 743 mmHg 90%
    18:00 +12°C° 1.1 mm 5 mps 743 mmHg 93%
    19:00 +12°C° 0.4 mm 4 mps 744 mmHg 93%
    20:00 +11°C° 0.4 mm 4 mps 744 mmHg 92%
    21:00 +11°C° 0.4 mm 4 mps 744 mmHg 92%
    22:00 +10°C° 0 mm 4 mps 744 mmHg 92%
    23:00 +10°C° 0 mm 4 mps 745 mmHg 93%

    28 September, Saturday

    Time Temperature Precipitation Wind Pressure Humidity
    00:00 +8°C° 0 mm 4 mps 745 mmHg 93%
    01:00 +9°C° 0 mm 3 mps 745 mmHg 93%
    02:00 +9°C° 0 mm 3 mps 745 mmHg 93%
    03:00 +8°C° 0 mm 3 mps 745 mmHg 93%
    04:00 +8°C° 0 mm 3 mps 745 mmHg 93%
    05:00 +8°C° 0 mm 3 mps 746 mmHg 94%
    06:00 +8°C° 0 mm 3 mps 746 mmHg 94%
    07:00 +10°C° 0 mm 4 mps 746 mmHg 90%
    08:00 +10°C° 0 mm 5 mps 746 mmHg 86%
    09:00 +11°C° 0 mm 6 mps 747 mmHg 82%
    10:00 +13°C° 0 mm 6 mps 747 mmHg 78%
    11:00 +14°C° 0 mm 6 mps 747 mmHg 74%
    12:00 +15°C° 0 mm 6 mps 747 mmHg 70%
    13:00 +15°C° 0 mm 5 mps 747 mmHg 69%
    14:00 +15°C° 0 mm 5 mps 747 mmHg 69%
    15:00 +15°C° 0 mm 5 mps 747 mmHg 69%
    16:00 +14°C° 0 mm 4 mps 747 mmHg 75%
    17:00 +13°C° 0 mm 3 mps 747 mmHg 82%
    18:00 +11°C° 0 mm 3 mps 747 mmHg 89%
    19:00 +12°C° 0 mm 2 mps 748 mmHg 91%
    20:00 +10°C° 0 mm 2 mps 748 mmHg 93%
    21:00 +9°C° 0 mm 2 mps 748 mmHg 94%
    22:00 +10°C° 0 mm 2 mps 748 mmHg 95%
    23:00 +10°C° 0 mm 2 mps 748 mmHg 95%
    Show more